Tracking 35274 objects as of 11-Sep-2026
HD Live streaming from Space Station
objects crossing your sky now

JILIN-01 KUANFU 02B 1

Track JILIN-01 KUANFU 02B 1 now!
10-day predictions


NORAD ID: 61189
Int'l Code: 2024-169A
Launch date: September 20, 2024
Source: People's Republic of China (PRC)
Launch site: Taiyaun Space Center, China (TSC)
Your satellite tracking list
Your tracking list is empty




NASA's NSSDC Master Catalog

Two Line Element Set (TLE):
1 61189U 24169A   26253.91489981  .00002801  00000-0  17926-3 0  9993
2 61189  97.5559 342.1410 0004187 106.2366 253.9323 15.09382658108751
Source of the keplerian elements: AFSPC